Year,Month,Day,Hour,Minute,Value (Times are PST for insolation in W/m^2)
2009,12,10,00,00,0.00
2009,12,10,00,01,0.00
2009,12,10,00,02,0.00
2009,12,10,00,03,0.00
2009,12,10,00,04,0.00
2009,12,10,00,05,0.00
2009,12,10,00,06,0.00
2009,12,10,00,07,0.00
2009,12,10,00,08,0.00
2009,12,10,00,09,0.00
2009,12,10,00,10,0.00
2009,12,10,00,11,0.00
2009,12,10,00,12,0.00
2009,12,10,00,13,0.00
2009,12,10,00,14,0.00
2009,12,10,00,15,0.00
2009,12,10,00,16,0.00
2009,12,10,00,17,0.00
2009,12,10,00,18,0.00
2009,12,10,00,19,0.00
2009,12,10,00,20,0.00
2009,12,10,00,21,0.00
2009,12,10,00,22,0.00
2009,12,10,00,23,0.00
2009,12,10,00,24,0.00
2009,12,10,00,25,0.00
2009,12,10,00,26,0.00
2009,12,10,00,27,0.00
2009,12,10,00,28,0.00
2009,12,10,00,29,0.00
2009,12,10,00,30,0.00
2009,12,10,00,31,0.00
2009,12,10,00,32,0.00
2009,12,10,00,33,0.00
2009,12,10,00,34,0.00
2009,12,10,00,35,0.00
2009,12,10,00,36,0.00
2009,12,10,00,37,0.00
2009,12,10,00,38,0.00
2009,12,10,01,12,0.00
2009,12,10,01,13,0.00
2009,12,10,01,14,0.00
2009,12,10,01,15,0.00
2009,12,10,01,16,0.00
2009,12,10,01,17,0.00
2009,12,10,01,18,0.00
2009,12,10,01,19,0.00
2009,12,10,01,20,0.00
2009,12,10,01,21,0.00
2009,12,10,01,22,0.00
2009,12,10,01,23,0.00
2009,12,10,01,24,0.00
2009,12,10,01,25,0.00
2009,12,10,01,26,0.00
2009,12,10,01,27,0.00
2009,12,10,01,28,0.00
2009,12,10,01,29,0.00
2009,12,10,01,30,0.00
2009,12,10,01,31,0.00
2009,12,10,01,32,0.00
2009,12,10,01,33,0.00
2009,12,10,01,34,0.00
2009,12,10,01,35,0.00
2009,12,10,01,36,0.00
2009,12,10,01,37,0.00
2009,12,10,01,38,0.00
2009,12,10,01,39,0.00
2009,12,10,01,40,0.00
2009,12,10,01,41,0.00
2009,12,10,01,42,0.00
2009,12,10,01,43,0.00
2009,12,10,01,44,0.00
2009,12,10,01,45,0.00
2009,12,10,01,46,0.00
2009,12,10,01,47,0.00
2009,12,10,01,48,0.00
2009,12,10,01,49,0.00
2009,12,10,01,50,0.00
2009,12,10,01,51,0.00
2009,12,10,01,52,0.00
2009,12,10,01,53,0.00
2009,12,10,01,54,0.00
2009,12,10,01,55,0.00
2009,12,10,01,56,0.00
2009,12,10,01,57,0.00
2009,12,10,01,58,0.00
2009,12,10,01,59,0.00
2009,12,10,02,00,0.00
2009,12,10,02,01,0.00
2009,12,10,02,02,0.00
2009,12,10,02,03,0.00
2009,12,10,02,04,0.00
2009,12,10,02,05,0.00
2009,12,10,02,06,0.00
2009,12,10,02,07,0.00
2009,12,10,02,08,0.00
2009,12,10,02,09,0.00
2009,12,10,02,10,0.00
2009,12,10,02,11,0.00
2009,12,10,02,12,0.00
2009,12,10,02,13,0.00
2009,12,10,02,14,0.00
2009,12,10,02,15,0.00
2009,12,10,02,16,0.00
2009,12,10,02,17,0.00
2009,12,10,02,18,0.00
2009,12,10,02,19,0.00
2009,12,10,02,20,0.00
2009,12,10,02,21,0.00
2009,12,10,02,22,0.00
2009,12,10,02,23,0.00
2009,12,10,02,24,0.00
2009,12,10,02,25,0.00
2009,12,10,02,26,0.00
2009,12,10,02,27,0.00
2009,12,10,02,28,0.00
2009,12,10,02,29,0.00
2009,12,10,02,30,0.00
2009,12,10,02,31,0.00
2009,12,10,02,32,0.00
2009,12,10,02,33,0.00
2009,12,10,02,34,0.00
2009,12,10,02,35,0.00
2009,12,10,02,36,0.00
2009,12,10,02,37,0.00
2009,12,10,02,38,0.00
2009,12,10,02,39,0.00
2009,12,10,02,40,0.00
2009,12,10,02,41,0.00
2009,12,10,02,42,0.00
2009,12,10,02,43,0.00
2009,12,10,02,44,0.00
2009,12,10,02,45,0.00
2009,12,10,02,46,0.00
2009,12,10,02,47,0.00
2009,12,10,02,48,0.00
2009,12,10,02,49,0.00
2009,12,10,02,50,0.00
2009,12,10,02,51,0.00
2009,12,10,02,52,0.00
2009,12,10,02,53,0.00
2009,12,10,02,54,0.00
2009,12,10,02,55,0.00
2009,12,10,02,56,0.00
2009,12,10,02,57,0.00
2009,12,10,02,58,0.00
2009,12,10,02,59,0.00
2009,12,10,03,00,0.00
2009,12,10,03,01,0.00
2009,12,10,03,02,0.00
2009,12,10,03,03,0.00
2009,12,10,03,04,0.00
2009,12,10,03,05,0.00
2009,12,10,03,06,0.00
2009,12,10,03,07,0.00
2009,12,10,03,08,0.00
2009,12,10,03,09,0.00
2009,12,10,03,10,0.00
2009,12,10,03,11,0.00
2009,12,10,03,12,0.00
2009,12,10,03,13,0.00
2009,12,10,03,14,0.00
2009,12,10,03,15,0.00
2009,12,10,03,16,0.00
2009,12,10,03,17,0.00
2009,12,10,03,18,0.00
2009,12,10,03,19,0.00
2009,12,10,03,20,0.00
2009,12,10,03,21,0.00
2009,12,10,03,22,0.00
2009,12,10,03,23,0.00
2009,12,10,03,24,0.00
2009,12,10,03,25,0.00
2009,12,10,03,26,0.00
2009,12,10,03,27,0.00
2009,12,10,03,28,0.00
2009,12,10,03,29,0.00
2009,12,10,03,30,0.00
2009,12,10,03,31,0.00
2009,12,10,03,32,0.00
2009,12,10,03,33,0.00
2009,12,10,03,34,0.00
2009,12,10,03,35,0.00
2009,12,10,03,36,0.00
2009,12,10,03,37,0.00
2009,12,10,03,38,0.00
2009,12,10,03,39,0.00
2009,12,10,03,40,0.00
2009,12,10,03,41,0.00
2009,12,10,03,42,0.00
2009,12,10,03,43,0.00
2009,12,10,03,44,0.00
2009,12,10,03,45,0.00
2009,12,10,03,46,0.00
2009,12,10,03,47,0.00
2009,12,10,03,48,0.00
2009,12,10,03,49,0.00
2009,12,10,03,50,0.00
2009,12,10,03,51,0.00
2009,12,10,03,52,0.00
2009,12,10,03,53,0.00
2009,12,10,03,54,0.00
2009,12,10,03,55,0.00
2009,12,10,03,56,0.00
2009,12,10,03,57,0.00
2009,12,10,03,58,0.00
2009,12,10,03,59,0.00
2009,12,10,04,00,0.00
2009,12,10,04,01,0.00
2009,12,10,04,02,0.00
2009,12,10,04,03,0.00
2009,12,10,04,04,0.00
2009,12,10,04,05,0.00
2009,12,10,04,06,0.00
2009,12,10,04,07,0.00
2009,12,10,04,08,0.00
2009,12,10,04,09,0.00
2009,12,10,04,10,0.00
2009,12,10,04,11,0.00
2009,12,10,04,12,0.00
2009,12,10,04,13,0.00
2009,12,10,04,14,0.00
2009,12,10,04,15,0.00
2009,12,10,04,16,0.00
2009,12,10,04,17,0.00
2009,12,10,04,18,0.00
2009,12,10,04,19,0.00
2009,12,10,04,20,0.00
2009,12,10,04,21,0.00
2009,12,10,04,22,0.00
2009,12,10,04,23,0.00
2009,12,10,04,24,0.00
2009,12,10,04,25,0.00
2009,12,10,04,26,0.00
2009,12,10,04,27,0.00
2009,12,10,04,28,0.00
2009,12,10,04,29,0.00
2009,12,10,04,30,0.00
2009,12,10,04,31,0.00
2009,12,10,04,32,0.00
2009,12,10,04,33,0.00
2009,12,10,04,34,0.00
2009,12,10,04,35,0.00
2009,12,10,04,36,0.00
2009,12,10,04,37,0.00
2009,12,10,04,38,0.00
2009,12,10,04,39,0.00
2009,12,10,04,40,0.00
2009,12,10,04,41,0.00
2009,12,10,04,42,0.00
2009,12,10,04,43,0.00
2009,12,10,04,44,0.00
2009,12,10,04,45,0.00
2009,12,10,04,46,0.00
2009,12,10,04,47,0.00
2009,12,10,04,48,0.00
2009,12,10,04,49,0.00
2009,12,10,04,50,0.00
2009,12,10,04,51,0.00
2009,12,10,04,52,0.00
2009,12,10,04,53,0.00
2009,12,10,04,54,0.00
2009,12,10,04,55,0.00
2009,12,10,04,56,0.00
2009,12,10,04,57,0.00
2009,12,10,04,58,0.00
2009,12,10,04,59,0.00
2009,12,10,05,00,0.00
2009,12,10,05,01,0.00
2009,12,10,05,02,0.00
2009,12,10,05,03,0.00
2009,12,10,05,04,0.00
2009,12,10,05,05,0.00
2009,12,10,05,06,0.00
2009,12,10,05,07,0.00
2009,12,10,05,08,0.00
2009,12,10,05,09,0.00
2009,12,10,05,10,0.00
2009,12,10,05,11,0.00
2009,12,10,05,12,0.00
2009,12,10,05,13,0.00
2009,12,10,05,14,0.00
2009,12,10,05,15,0.00
2009,12,10,05,16,0.00
2009,12,10,05,17,0.00
2009,12,10,05,18,0.00
2009,12,10,05,19,0.00
2009,12,10,05,20,0.00
2009,12,10,05,21,0.00
2009,12,10,05,22,0.00
2009,12,10,05,23,0.00
2009,12,10,05,24,0.00
2009,12,10,05,25,0.00
2009,12,10,05,26,0.00
2009,12,10,05,27,0.00
2009,12,10,05,28,0.00
2009,12,10,05,29,0.00
2009,12,10,05,30,0.00
2009,12,10,05,31,0.00
2009,12,10,05,32,0.00
2009,12,10,05,33,0.00
2009,12,10,05,34,0.00
2009,12,10,05,35,0.00
2009,12,10,05,36,0.00
2009,12,10,05,37,0.00
2009,12,10,05,38,0.00
2009,12,10,05,39,0.00
2009,12,10,05,40,0.00
2009,12,10,05,41,0.00
2009,12,10,05,42,0.00
2009,12,10,05,43,0.00
2009,12,10,05,44,0.00
2009,12,10,05,45,0.00
2009,12,10,05,46,0.00
2009,12,10,05,47,0.00
2009,12,10,05,48,0.00
2009,12,10,05,49,0.00
2009,12,10,05,50,0.00
2009,12,10,05,51,0.00
2009,12,10,05,52,0.00
2009,12,10,05,53,0.00
2009,12,10,05,54,0.00
2009,12,10,05,55,0.00
2009,12,10,05,56,0.00
2009,12,10,05,57,0.00
2009,12,10,05,58,0.00
2009,12,10,05,59,0.00
2009,12,10,06,00,0.00
2009,12,10,06,01,0.00
2009,12,10,06,02,0.00
2009,12,10,06,03,0.00
2009,12,10,06,04,0.00
2009,12,10,06,05,0.00
2009,12,10,06,06,0.00
2009,12,10,06,07,0.00
2009,12,10,06,08,0.00
2009,12,10,06,09,0.00
2009,12,10,06,10,0.00
2009,12,10,06,11,0.00
2009,12,10,06,12,0.00
2009,12,10,06,13,0.00
2009,12,10,06,14,0.00
2009,12,10,06,15,0.00
2009,12,10,06,16,0.00
2009,12,10,06,17,0.00
2009,12,10,06,18,0.00
2009,12,10,06,19,0.00
2009,12,10,06,20,0.00
2009,12,10,06,21,0.00
2009,12,10,06,22,0.00
2009,12,10,06,23,0.00
2009,12,10,06,24,0.00
2009,12,10,06,25,0.00
2009,12,10,06,26,0.00
2009,12,10,06,27,0.00
2009,12,10,06,28,0.00
2009,12,10,06,29,0.00
2009,12,10,06,30,0.00
2009,12,10,06,31,0.00
2009,12,10,06,32,0.00
2009,12,10,06,33,0.00
2009,12,10,06,34,0.00
2009,12,10,06,35,0.00
2009,12,10,06,36,0.00
2009,12,10,06,37,0.00
2009,12,10,06,38,0.00
2009,12,10,06,39,0.00
2009,12,10,06,40,0.00
2009,12,10,06,41,0.00
2009,12,10,06,42,0.00
2009,12,10,06,43,0.00
2009,12,10,06,44,0.00
2009,12,10,06,45,0.00
2009,12,10,06,46,0.00
2009,12,10,06,47,0.00
2009,12,10,06,48,0.00
2009,12,10,06,49,0.00
2009,12,10,06,50,0.00
2009,12,10,06,51,0.00
2009,12,10,06,52,0.00
2009,12,10,06,53,0.00
2009,12,10,06,54,0.00
2009,12,10,06,55,0.00
2009,12,10,06,56,0.00
2009,12,10,06,57,0.00
2009,12,10,06,58,0.00
2009,12,10,06,59,0.00
2009,12,10,07,00,0.00
2009,12,10,07,01,0.00
2009,12,10,07,02,0.00
2009,12,10,07,03,0.00
2009,12,10,07,04,0.00
2009,12,10,07,05,0.00
2009,12,10,07,06,0.00
2009,12,10,07,07,0.00
2009,12,10,07,08,0.00
2009,12,10,07,09,0.00
2009,12,10,07,10,0.00
2009,12,10,07,11,0.00
2009,12,10,07,12,0.00
2009,12,10,07,13,0.00
2009,12,10,07,14,0.00
2009,12,10,07,15,0.00
2009,12,10,07,16,0.00
2009,12,10,07,17,0.00
2009,12,10,07,18,0.00
2009,12,10,07,19,0.00
2009,12,10,07,20,0.00
2009,12,10,07,21,0.00
2009,12,10,07,22,0.00
2009,12,10,07,23,0.00
2009,12,10,07,24,0.00
2009,12,10,07,25,0.00
2009,12,10,07,26,0.00
2009,12,10,07,27,0.00
2009,12,10,07,28,0.00
2009,12,10,07,29,0.00
2009,12,10,07,30,0.00
2009,12,10,07,31,0.00
2009,12,10,07,32,0.00
2009,12,10,07,33,0.00
2009,12,10,07,34,0.00
2009,12,10,07,35,0.00
2009,12,10,07,36,0.00
2009,12,10,07,37,0.00
2009,12,10,07,38,0.00
2009,12,10,07,39,0.00
2009,12,10,07,40,0.00
2009,12,10,07,41,0.00
2009,12,10,07,42,0.00
2009,12,10,07,43,0.00
2009,12,10,07,44,0.00
2009,12,10,07,45,0.00
2009,12,10,07,46,0.00
2009,12,10,07,47,0.00
2009,12,10,07,48,0.00
2009,12,10,07,49,0.00
2009,12,10,07,50,0.00
2009,12,10,07,51,0.00
2009,12,10,07,52,0.00
2009,12,10,07,53,0.00
2009,12,10,07,54,0.00
2009,12,10,07,55,0.00
2009,12,10,07,56,3.20
2009,12,10,07,57,5.00
2009,12,10,07,58,5.00
2009,12,10,07,59,5.00
2009,12,10,08,00,5.00
2009,12,10,08,01,5.60
2009,12,10,08,02,7.00
2009,12,10,08,03,7.00
2009,12,10,08,04,7.00
2009,12,10,08,05,7.00
2009,12,10,08,06,7.00
2009,12,10,08,07,7.00
2009,12,10,08,08,9.00
2009,12,10,08,09,9.00
2009,12,10,08,10,9.00
2009,12,10,08,11,9.90
2009,12,10,08,12,11.00
2009,12,10,08,13,11.60
2009,12,10,08,14,12.00
2009,12,10,08,15,12.00
2009,12,10,08,16,12.00
2009,12,10,08,17,12.00
2009,12,10,08,18,12.00
2009,12,10,08,19,12.00
2009,12,10,08,20,12.00
2009,12,10,08,21,13.20
2009,12,10,08,22,14.00
2009,12,10,08,23,14.00
2009,12,10,08,24,15.90
2009,12,10,08,25,16.20
2009,12,10,08,26,18.20
2009,12,10,08,27,19.60
2009,12,10,08,28,21.90
2009,12,10,08,29,23.00
2009,12,10,08,30,23.00
2009,12,10,08,31,21.50
2009,12,10,08,32,21.00
2009,12,10,08,33,21.10
2009,12,10,08,34,23.30
2009,12,10,08,35,25.30
2009,12,10,08,36,26.70
2009,12,10,08,37,28.90
2009,12,10,08,38,31.20
2009,12,10,08,39,32.00
2009,12,10,08,40,32.80
2009,12,10,08,41,33.00
2009,12,10,08,42,35.00
2009,12,10,08,43,35.00
2009,12,10,08,44,35.00
2009,12,10,08,45,35.00
2009,12,10,08,46,36.10
2009,12,10,08,47,38.20
2009,12,10,08,48,39.00
2009,12,10,08,49,39.80
2009,12,10,08,50,43.80
2009,12,10,08,51,44.30
2009,12,10,08,52,48.40
2009,12,10,08,53,53.00
2009,12,10,08,54,51.20
2009,12,10,08,55,49.00
2009,12,10,08,56,52.30
2009,12,10,08,57,57.20
2009,12,10,08,58,56.20
2009,12,10,08,59,56.00
2009,12,10,09,00,55.60
2009,12,10,09,01,54.50
2009,12,10,09,02,56.00
2009,12,10,09,03,54.50
2009,12,10,09,04,48.90
2009,12,10,09,05,44.60
2009,12,10,09,06,45.60
2009,12,10,09,07,46.00
2009,12,10,09,08,46.30
2009,12,10,09,09,49.80
2009,12,10,09,10,60.20
2009,12,10,09,11,82.80
2009,12,10,09,12,81.60
2009,12,10,09,13,65.60
2009,12,10,09,14,67.50
2009,12,10,09,15,70.00
2009,12,10,09,16,58.50
2009,12,10,09,17,55.70
2009,12,10,09,18,54.00
2009,12,10,09,19,54.00
2009,12,10,09,20,54.00
2009,12,10,09,21,54.00
2009,12,10,09,22,53.30
2009,12,10,09,23,50.00
2009,12,10,09,24,49.00
2009,12,10,09,25,43.80
2009,12,10,09,26,41.60
2009,12,10,09,27,40.00
2009,12,10,09,28,39.60
2009,12,10,09,29,39.50
2009,12,10,09,30,43.80
2009,12,10,09,31,46.70
2009,12,10,09,32,52.70
2009,12,10,09,33,79.30
2009,12,10,09,34,75.50
2009,12,10,09,35,96.00
2009,12,10,09,36,124.20
2009,12,10,09,37,103.30
2009,12,10,09,38,139.10
2009,12,10,09,39,171.60
2009,12,10,09,40,183.70
2009,12,10,09,41,187.60
2009,12,10,09,42,191.90
2009,12,10,09,43,193.30
2009,12,10,09,44,194.50
2009,12,10,09,45,194.40
2009,12,10,09,46,197.00
2009,12,10,09,47,176.00
2009,12,10,09,48,162.00
2009,12,10,09,49,162.00
2009,12,10,09,50,104.40
2009,12,10,09,51,94.30
2009,12,10,09,52,86.90
2009,12,10,09,53,86.60
2009,12,10,09,54,119.00
2009,12,10,09,55,170.50
2009,12,10,09,56,198.80
2009,12,10,09,57,208.10
2009,12,10,09,58,145.20
2009,12,10,09,59,65.80
2009,12,10,10,00,65.60
2009,12,10,10,01,69.20
2009,12,10,10,02,70.00
2009,12,10,10,03,70.90
2009,12,10,10,04,74.80
2009,12,10,10,05,78.40
2009,12,10,10,06,80.60
2009,12,10,10,07,81.00
2009,12,10,10,08,81.50
2009,12,10,10,09,87.10
2009,12,10,10,10,92.20
2009,12,10,10,11,95.00
2009,12,10,10,12,94.00
2009,12,10,10,13,88.60
2009,12,10,10,14,79.70
2009,12,10,10,15,71.40
2009,12,10,10,16,65.20
2009,12,10,10,17,62.80
2009,12,10,10,18,62.20
2009,12,10,10,19,65.40
2009,12,10,10,20,73.20
2009,12,10,10,21,84.20
2009,12,10,10,22,144.00
2009,12,10,10,23,171.00
2009,12,10,10,24,276.40
2009,12,10,10,25,304.60
2009,12,10,10,26,269.80
2009,12,10,10,27,263.40
2009,12,10,10,28,304.00
2009,12,10,10,29,294.50
2009,12,10,10,30,285.00
2009,12,10,10,31,185.10
2009,12,10,10,32,106.20
2009,12,10,10,33,98.00
2009,12,10,10,34,111.40
2009,12,10,10,35,116.80
2009,12,10,10,36,122.20
2009,12,10,10,37,119.00
2009,12,10,10,38,127.90
2009,12,10,10,39,135.00
2009,12,10,10,40,161.30
2009,12,10,10,41,207.60
2009,12,10,10,42,221.40
2009,12,10,10,43,367.10
2009,12,10,10,44,391.80
2009,12,10,10,45,380.10
2009,12,10,10,46,356.00
2009,12,10,10,47,341.00
2009,12,10,10,48,214.40
2009,12,10,10,49,152.20
2009,12,10,10,50,142.50
2009,12,10,10,51,133.60
2009,12,10,10,52,125.60
2009,12,10,10,53,118.70
2009,12,10,10,54,114.80
2009,12,10,10,55,113.50
2009,12,10,10,56,110.90
2009,12,10,10,57,106.20
2009,12,10,10,58,150.10
2009,12,10,10,59,158.00
2009,12,10,11,00,218.30
2009,12,10,11,01,217.50
2009,12,10,11,02,277.00
2009,12,10,11,03,298.30
2009,12,10,11,04,268.00
2009,12,10,11,05,232.90
2009,12,10,11,06,257.50
2009,12,10,11,07,288.50
2009,12,10,11,08,268.30
2009,12,10,11,09,242.70
2009,12,10,11,10,104.20
2009,12,10,11,11,102.80
2009,12,10,11,12,106.40
2009,12,10,11,13,111.20
2009,12,10,11,14,118.40
2009,12,10,11,15,122.40
2009,12,10,11,16,123.00
2009,12,10,11,17,125.50
2009,12,10,11,18,130.00
2009,12,10,11,19,131.80
2009,12,10,11,20,141.30
2009,12,10,11,21,149.00
2009,12,10,11,22,156.80
2009,12,10,11,23,203.30
2009,12,10,11,24,235.40
2009,12,10,11,25,274.10
2009,12,10,11,26,276.00
2009,12,10,11,27,276.00
2009,12,10,11,28,345.60
2009,12,10,11,29,479.00
2009,12,10,11,30,488.20
2009,12,10,11,31,487.30
2009,12,10,11,32,477.10
2009,12,10,11,33,461.40
2009,12,10,11,34,438.70
2009,12,10,11,35,411.70
2009,12,10,11,36,390.60
2009,12,10,11,37,397.00
2009,12,10,11,38,372.50
2009,12,10,11,39,321.60
2009,12,10,11,40,304.00
2009,12,10,11,41,157.50
2009,12,10,11,42,122.90
2009,12,10,11,43,120.70
2009,12,10,11,44,117.00
2009,12,10,11,45,116.30
2009,12,10,11,46,122.10
2009,12,10,11,47,125.00
2009,12,10,11,48,171.80
2009,12,10,11,49,213.80
2009,12,10,11,50,219.80
2009,12,10,11,51,237.40
2009,12,10,11,52,395.40
2009,12,10,11,53,403.10
2009,12,10,11,54,394.40
2009,12,10,11,55,389.00
2009,12,10,11,56,384.20
2009,12,10,11,57,371.00
2009,12,10,11,58,204.40
2009,12,10,11,59,167.60
2009,12,10,12,00,182.40
2009,12,10,12,01,199.30
2009,12,10,12,02,217.80
2009,12,10,12,03,236.20
2009,12,10,12,04,280.50
2009,12,10,12,05,315.00
2009,12,10,12,06,489.00
2009,12,10,12,07,555.50
2009,12,10,12,08,566.00
2009,12,10,12,09,571.00
2009,12,10,12,10,569.30
2009,12,10,12,11,564.00
2009,12,10,12,12,450.80
2009,12,10,12,13,301.90
2009,12,10,12,14,278.10
2009,12,10,12,15,270.70
2009,12,10,12,16,270.80
2009,12,10,12,17,294.00
2009,12,10,12,18,333.60
2009,12,10,12,19,492.00
2009,12,10,12,20,492.00
2009,12,10,12,21,492.00
2009,12,10,12,22,482.10
2009,12,10,12,23,476.00
2009,12,10,12,24,391.00
2009,12,10,12,25,370.80
2009,12,10,12,26,264.60
2009,12,10,12,27,200.60
2009,12,10,12,28,193.20
2009,12,10,12,29,184.90
2009,12,10,12,30,175.80
2009,12,10,12,31,172.70
2009,12,10,12,32,173.50
2009,12,10,12,33,174.00
2009,12,10,12,34,171.10
2009,12,10,12,35,171.20
2009,12,10,12,36,173.20
2009,12,10,12,37,178.80
2009,12,10,12,38,198.60
2009,12,10,12,39,255.00
2009,12,10,12,40,281.00
2009,12,10,12,41,393.80
2009,12,10,12,42,439.10
2009,12,10,12,43,438.40
2009,12,10,12,44,361.20
2009,12,10,12,45,339.60
2009,12,10,12,46,349.90
2009,12,10,12,47,377.10
2009,12,10,12,48,404.40
2009,12,10,12,49,431.20
2009,12,10,12,50,440.50
2009,12,10,12,51,453.40
2009,12,10,12,52,454.50
2009,12,10,12,53,460.10
2009,12,10,12,54,469.00
2009,12,10,12,55,469.60
2009,12,10,12,56,441.60
2009,12,10,12,57,408.10
2009,12,10,12,58,436.20
2009,12,10,12,59,461.30
2009,12,10,13,00,457.60
2009,12,10,13,01,420.10
2009,12,10,13,02,377.00
2009,12,10,13,03,366.40
2009,12,10,13,04,364.00
2009,12,10,13,05,343.60
2009,12,10,13,06,336.00
2009,12,10,13,07,223.20
2009,12,10,13,08,239.10
2009,12,10,13,09,279.50
2009,12,10,13,10,268.30
2009,12,10,13,11,250.60
2009,12,10,13,12,237.00
2009,12,10,13,13,270.10
2009,12,10,13,14,299.20
2009,12,10,13,15,301.00
2009,12,10,13,16,173.50
2009,12,10,13,17,180.10
2009,12,10,13,18,258.20
2009,12,10,13,19,296.00
2009,12,10,13,20,310.00
2009,12,10,13,21,270.50
2009,12,10,13,22,233.40
2009,12,10,13,23,251.00
2009,12,10,13,24,290.10
2009,12,10,13,25,294.30
2009,12,10,13,26,270.20
2009,12,10,13,27,56.00
2009,12,10,13,28,57.30
2009,12,10,13,29,80.40
2009,12,10,13,30,153.40
2009,12,10,13,31,227.10
2009,12,10,13,32,278.40
2009,12,10,13,33,301.20
2009,12,10,13,34,308.00
2009,12,10,13,35,314.00
2009,12,10,13,36,320.70
2009,12,10,13,37,323.70
2009,12,10,13,38,324.10
2009,12,10,13,39,320.20
2009,12,10,13,40,307.10
2009,12,10,13,41,302.00
2009,12,10,13,42,122.00
2009,12,10,13,43,83.20
2009,12,10,13,44,99.00
2009,12,10,13,45,151.00
2009,12,10,13,46,213.60
2009,12,10,13,47,294.50
2009,12,10,13,48,300.30
2009,12,10,13,49,301.00
2009,12,10,13,50,305.20
2009,12,10,13,51,308.80
2009,12,10,13,52,310.70
2009,12,10,13,53,308.00
2009,12,10,13,54,287.90
2009,12,10,13,55,213.10
2009,12,10,13,56,155.90
2009,12,10,13,57,131.10
2009,12,10,13,58,128.00
2009,12,10,13,59,246.10
2009,12,10,14,00,269.00
2009,12,10,14,01,269.00
2009,12,10,14,02,268.40
2009,12,10,14,03,265.80
2009,12,10,14,04,261.00
2009,12,10,14,05,255.00
2009,12,10,14,06,248.20
2009,12,10,14,07,239.20
2009,12,10,14,08,218.10
2009,12,10,14,09,202.30
2009,12,10,14,10,85.60
2009,12,10,14,11,87.30
2009,12,10,14,12,113.40
2009,12,10,14,13,170.00
2009,12,10,14,14,210.10
2009,12,10,14,15,214.50
2009,12,10,14,16,210.00
2009,12,10,14,17,208.90
2009,12,10,14,18,206.90
2009,12,10,14,19,205.00
2009,12,10,14,20,200.20
2009,12,10,14,21,195.10
2009,12,10,14,22,188.80
2009,12,10,14,23,180.40
2009,12,10,14,24,174.80
2009,12,10,14,25,174.00
2009,12,10,14,26,166.70
2009,12,10,14,27,159.60
2009,12,10,14,28,159.20
2009,12,10,14,29,162.40
2009,12,10,14,30,161.50
2009,12,10,14,31,154.30
2009,12,10,14,32,146.10
2009,12,10,14,33,142.40
2009,12,10,14,34,142.00
2009,12,10,14,35,142.20
2009,12,10,14,36,145.80
2009,12,10,14,37,152.80
2009,12,10,14,38,157.70
2009,12,10,14,39,160.00
2009,12,10,14,40,157.40
2009,12,10,14,41,156.00
2009,12,10,14,42,156.00
2009,12,10,14,43,155.60
2009,12,10,14,44,149.40
2009,12,10,14,45,149.70
2009,12,10,14,46,144.10
2009,12,10,14,47,139.00
2009,12,10,14,48,135.80
2009,12,10,14,49,134.30
2009,12,10,14,50,130.80
2009,12,10,14,51,128.20
2009,12,10,14,52,128.00
2009,12,10,14,53,127.80
2009,12,10,14,54,127.30
2009,12,10,14,55,130.70
2009,12,10,14,56,130.10
2009,12,10,14,57,118.60
2009,12,10,14,58,115.50
2009,12,10,14,59,123.70
2009,12,10,15,00,129.90
2009,12,10,15,01,132.00
2009,12,10,15,02,132.00
2009,12,10,15,03,132.00
2009,12,10,15,04,132.90
2009,12,10,15,05,134.60
2009,12,10,15,06,137.70
2009,12,10,15,07,141.20
2009,12,10,15,08,143.80
2009,12,10,15,09,146.00
2009,12,10,15,10,146.00
2009,12,10,15,11,144.80
2009,12,10,15,12,140.80
2009,12,10,15,13,138.00
2009,12,10,15,14,135.70
2009,12,10,15,15,134.30
2009,12,10,15,16,132.30
2009,12,10,15,17,130.10
2009,12,10,15,18,126.80
2009,12,10,15,19,124.00
2009,12,10,15,20,120.10
2009,12,10,15,21,116.30
2009,12,10,15,22,111.00
2009,12,10,15,23,106.20
2009,12,10,15,24,101.00
2009,12,10,15,25,85.70
2009,12,10,15,26,82.30
2009,12,10,15,27,50.60
2009,12,10,15,28,48.10
2009,12,10,15,29,45.20
2009,12,10,15,30,41.90
2009,12,10,15,31,39.40
2009,12,10,15,32,36.30
2009,12,10,15,33,33.40
2009,12,10,15,34,32.10
2009,12,10,15,35,28.00
2009,12,10,15,36,27.60
2009,12,10,15,37,25.60
2009,12,10,15,38,25.00
2009,12,10,15,39,24.00
2009,12,10,15,40,23.00
2009,12,10,15,41,23.00
2009,12,10,15,42,21.40
2009,12,10,15,43,19.10
2009,12,10,15,44,18.90
2009,12,10,15,45,18.00
2009,12,10,15,46,18.00
2009,12,10,15,47,18.00
2009,12,10,15,48,18.00
2009,12,10,15,49,18.00
2009,12,10,15,50,18.00
2009,12,10,15,51,18.00
2009,12,10,15,52,14.00
2009,12,10,15,53,14.00
2009,12,10,15,54,13.40
2009,12,10,15,55,12.00
2009,12,10,15,56,12.00
2009,12,10,15,57,12.00
2009,12,10,15,58,12.00
2009,12,10,15,59,11.20
2009,12,10,16,00,11.00
2009,12,10,16,01,10.80
2009,12,10,16,02,9.00
2009,12,10,16,03,9.00
2009,12,10,16,04,8.10
2009,12,10,16,05,7.00
2009,12,10,16,06,7.00
2009,12,10,16,07,5.40
2009,12,10,16,08,5.00
2009,12,10,16,09,5.00
2009,12,10,16,10,4.20
2009,12,10,16,11,0.00
2009,12,10,16,12,0.00
2009,12,10,16,13,0.00
2009,12,10,16,14,0.00
2009,12,10,16,15,0.00
2009,12,10,16,16,0.00
2009,12,10,16,17,0.00
2009,12,10,16,18,0.00
2009,12,10,16,19,0.00
2009,12,10,16,20,0.00
2009,12,10,16,21,0.00
2009,12,10,16,22,0.00
2009,12,10,16,23,0.00
2009,12,10,16,24,0.00
2009,12,10,16,25,0.00
2009,12,10,16,26,0.00
2009,12,10,16,27,0.00
2009,12,10,16,28,0.00
2009,12,10,16,29,0.00
2009,12,10,16,30,0.00
2009,12,10,16,31,0.00
2009,12,10,16,32,0.00
2009,12,10,16,33,0.00
2009,12,10,16,34,0.00
2009,12,10,16,35,0.00
2009,12,10,16,36,0.00
2009,12,10,16,37,0.00
2009,12,10,16,38,0.00
2009,12,10,16,39,0.00
2009,12,10,16,40,0.00
2009,12,10,16,41,0.00
2009,12,10,16,42,0.00
2009,12,10,16,43,0.00
2009,12,10,16,44,0.00
2009,12,10,16,45,0.00
2009,12,10,16,46,0.00
2009,12,10,16,47,0.00
2009,12,10,16,48,0.00
2009,12,10,16,49,0.00
2009,12,10,16,50,0.00
2009,12,10,16,51,0.00
2009,12,10,16,52,0.00
2009,12,10,16,53,0.00
2009,12,10,16,54,0.00
2009,12,10,16,55,0.00
2009,12,10,16,56,0.00
2009,12,10,16,57,0.00
2009,12,10,16,58,0.00
2009,12,10,16,59,0.00
2009,12,10,17,00,0.00
2009,12,10,17,01,0.00
2009,12,10,17,02,0.00
2009,12,10,17,03,0.00
2009,12,10,17,04,0.00
2009,12,10,17,05,0.00
2009,12,10,17,06,0.00
2009,12,10,17,07,0.00
2009,12,10,17,08,0.00
2009,12,10,17,09,0.00
2009,12,10,17,10,0.00
2009,12,10,17,11,0.00
2009,12,10,17,12,0.00
2009,12,10,17,13,0.00
2009,12,10,17,14,0.00
2009,12,10,17,15,0.00
2009,12,10,17,16,0.00
2009,12,10,17,17,0.00
2009,12,10,17,18,0.00
2009,12,10,17,19,0.00
2009,12,10,17,20,0.00
2009,12,10,17,21,0.00
2009,12,10,17,22,0.00
2009,12,10,17,23,0.00
2009,12,10,17,24,0.00
2009,12,10,17,25,0.00
2009,12,10,17,26,0.00
2009,12,10,17,27,0.00
2009,12,10,17,28,0.00
2009,12,10,17,29,0.00
2009,12,10,17,30,0.00
2009,12,10,17,31,0.00
2009,12,10,17,32,0.00
2009,12,10,17,33,0.00
2009,12,10,17,34,0.00
2009,12,10,17,35,0.00
2009,12,10,17,36,0.00
2009,12,10,17,37,0.00
2009,12,10,17,38,0.00
2009,12,10,17,39,0.00
2009,12,10,17,40,0.00
2009,12,10,17,41,0.00
2009,12,10,17,42,0.00
2009,12,10,17,43,0.00
2009,12,10,17,44,0.00
2009,12,10,17,45,0.00
2009,12,10,17,46,0.00
2009,12,10,17,47,0.00
2009,12,10,17,48,0.00
2009,12,10,17,49,0.00
2009,12,10,17,50,0.00
2009,12,10,17,51,0.00
2009,12,10,17,52,0.00
2009,12,10,17,53,0.00
2009,12,10,17,54,0.00
2009,12,10,17,55,0.00
2009,12,10,17,56,0.00
2009,12,10,17,57,0.00
2009,12,10,17,58,0.00
2009,12,10,17,59,0.00
2009,12,10,18,00,0.00
2009,12,10,18,01,0.00
2009,12,10,18,02,0.00
2009,12,10,18,03,0.00